[Iaude] MPEC Q92: 2015 RJ277 [a=46.50,e=0.20,i=5.5,H=7.3]

mpec at mpcdb1.cfa.harvard.edu mpec at mpcdb1.cfa.harvard.edu
Wed Aug 29 14:39:18 EDT 2018


M.P.E.C. 2018-Q92                                Issued 2018 Aug. 29, 18:35 UT
 
     The Minor Planet Electronic Circulars contain information on unusual
         minor planets and routine data on comets.  They are published
    on behalf of Division F of the International Astronomical Union by the
          Minor Planet Center, Smithsonian Astrophysical Observatory,
                          Cambridge, MA 02138, U.S.A.

             Prepared using the Tamkin Foundation Computer Network

                              MPC at CFA.HARVARD.EDU
            URL https://www.minorplanetcenter.net/    ISSN 1523-6714


                                  2015 RJ277
 
Observations:
     K15RR7J @C2015 06 23.51987 00 34 14.805+05 35 44.00         23.5 rqEQ092568
     K15RR7J @C2015 07 14.61234 00 34 29.088+05 38 47.94         23.3 rqEQ092568
     K15RR7J @C2015 08 13.47990 00 33 42.424+05 35 54.35         23.2 rqEQ092568
     K15RR7J @C2015 08 13.50863 00 33 42.340+05 35 53.91         23.2 rqEQ092568
     K15RR7J @C2015 08 13.53336 00 33 42.275+05 35 53.63               qEQ092568
     K15RR7J @C2015 08 19.54254 00 33 24.385+05 34 21.82         23.4 rqEQ092568
     K15RR7J @C2015 08 19.58390 00 33 24.249+05 34 20.89         23.2 rqEQ092568
     K15RR7J @C2015 08 19.61259 00 33 24.144+05 34 20.36         23.3 rqEQ092568
     K15RR7J @C2015 08 20.41707 00 33 21.586+05 34 06.79         23.3 rqEQ092568
     K15RR7J @C2015 08 20.46648 00 33 21.421+05 34 05.89         23.3 rqEQ092568
     K15RR7J @C2015 09 07.56274 00 32 13.369+05 27 48.76         23.5 wqEQ092568
     K15RR7J*@C2015 09 09.39169 00 32 05.612+05 27 04.14         23.1 rqEQ092568
     K15RR7J @C2015 09 09.43322 00 32 05.445+05 27 03.15         23.2 rqEQ092568
     K15RR7J @C2015 09 09.47414 00 32 05.262+05 27 02.09         23.2 rqEQ092568
     K15RR7J @C2015 09 10.49775 00 32 00.859+05 26 36.73         23.3 wqEQ092568
     K15RR7J @C2015 09 18.45683 00 31 25.435+05 23 09.54         23.1 wqEQ092568
     K15RR7J @C2015 09 18.49368 00 31 25.275+05 23 08.58         23.2 wqEQ092568
     K15RR7J @C2015 10 08.34456 00 29 52.439+05 13 47.39         23.4 wqEQ092568
     K15RR7J @C2015 10 08.39722 00 29 52.190+05 13 45.92         23.3 wqEQ092568
     K15RR7J @C2015 10 09.31422 00 29 47.907+05 13 19.44         23.3 wqEQ092568
     K15RR7J @C2015 11 10.43997 00 27 34.041+04 59 08.13         23.1 wqEQ092568
     K15RR7J @C2015 12 08.23879 00 26 29.357+04 51 43.04         23.5 wqEQ092568
     K15RR7J @C2016 09 05.47427 00 37 50.531+06 12 50.50               qEQ092568
     K15RR7J @C2016 09 06.42847 00 37 46.598+06 12 28.32               qEQ092568
     K15RR7J @C2016 09 06.46893 00 37 46.421+06 12 27.37               qEQ092568
     K15RR7J @C2016 09 26.43536 00 36 16.888+06 03 46.36         23.3 wqEQ092568
     K15RR7J @C2016 09 26.44752 00 36 16.834+06 03 45.92         23.4 wqEQ092568
     K15RR7J @C2016 10 26.40787 00 33 58.714+05 49 34.27         23.3 rqEQ092568
     K15RR7J @C2016 10 26.47363 00 33 58.431+05 49 32.54         23.3 rqEQ092568
     K15RR7J @C2016 11 03.39147 00 33 26.251+05 46 05.90               qEQ092568
     K15RR7J @C2016 11 03.40304 00 33 26.206+05 46 05.62               qEQ092568
     K15RR7J @C2016 11 03.45641 00 33 25.988+05 46 04.27               qEQ092568
     K15RR7J @C2016 11 03.46810 00 33 25.950+05 46 03.97               qEQ092568
     K15RR7J @C2016 12 25.25214 00 31 46.885+05 34 21.55               qEQ092568
     K15RR7J @C2016 12 29.24332 00 31 49.307+05 34 29.54         23.5 wqEQ092568
     K15RR7J @C2017 01 02.29442 00 31 53.355+05 34 47.71         23.6 wqEQ092568
     K15RR7J @C2017 01 03.21350 00 31 54.514+05 34 53.33         23.7 wqEQ092568
     K15RR7J @C2017 01 30.22844 00 33 03.076+05 41 26.01         23.7 wqEQ092568
 
Observer details:
568 Mauna Kea.  Observers M. T. Bannister, J. J. Kavelaars, B. J. Gladman,
    J.-M. Petit, T. Burdullis.  Measurers S. D. J. Gwyn, Y.-T. Chen,
    M. Alexandersen, M. Schwamb.  3.6-m Canada-France-Hawaii Telescope + CCD.
 
Orbital elements:
2015 RJ277
Epoch 2018 Mar. 23.0 TT = JDT 2458200.5                 MPC
M 326.96783              (2000.0)            P               Q
n   0.00310875     Peri.   71.34928     +0.47656033     -0.87898724
a  46.4956424      Node   350.14061     +0.76596503     +0.42433923
e   0.1998523      Incl.    5.52387     +0.43149488     +0.21752619
P 317              H    7.3           G   0.15           U   4
Residuals in seconds of arc
150623 568  0.1+  0.0     150909 568  0.0   0.1-    160926 568  0.0   0.0
150714 568  0.1+  0.1-    150910 568  0.0   0.0     161026 568  0.0   0.0
150813 568  0.0   0.0     150918 568  0.1-  0.0     161026 568  0.0   0.1+
150813 568  0.0   0.0     150918 568  0.1+  0.0     161103 568  0.0   0.0
150813 568  0.0   0.0     151008 568  0.0   0.0     161103 568  0.0   0.0
150819 568  0.0   0.2+    151008 568  0.1+  0.0     161103 568  0.1-  0.0
150819 568  0.0   0.0     151009 568  0.0   0.0     161103 568  0.0   0.0
150819 568  0.1-  0.1-    151110 568  0.0   0.0     161225 568  0.0   0.1-
150820 568  0.0   0.0     151208 568  0.1+  0.0     161229 568  0.0   0.0
150820 568  0.0   0.1-    160905 568  0.0   0.0     170102 568  0.0   0.0
150907 568  0.1-  0.0     160906 568  0.1+  0.0     170103 568  0.1+  0.0
150909 568  0.2-  0.0     160906 568  0.0   0.0     170130 568  0.0   0.1+
150909 568  0.0   0.0     160926 568  0.0   0.1+

Ephemeris:
2015 RJ277               a,e,i = 46.50, 0.20, 6                  q = 37.203
Date    TT    R. A. (2000) Decl.     Delta      r     Elong.  Phase     V
2018 07 30    00 50 48.4 +07 50 17  38.9881 39.3765   111.8     1.4    23.4
...
2018 08 14    00 50 19.9 +07 48 30  38.7628 39.3708   126.3     1.2    23.4
...
2018 08 22    00 49 57.4 +07 46 44  38.6575 39.3677   134.1     1.1    23.4
...
2018 08 28    00 49 37.6 +07 45 04  38.5870 39.3654   139.9     0.9    23.4
2018 08 29    00 49 34.1 +07 44 46  38.5761 39.3650   140.9     0.9    23.4
2018 08 30    00 49 30.5 +07 44 27  38.5653 39.3647   141.9     0.9    23.4
...
2018 09 05    00 49 07.8 +07 42 27  38.5057 39.3624   147.8     0.8    23.3
...
2018 09 13    00 48 34.6 +07 39 25  38.4402 39.3593   155.7     0.6    23.3
...
2018 09 28    00 47 26.2 +07 32 53  38.3650 39.3536   170.4     0.2    23.3

A. U. Tomatic                (C) Copyright 2018 MPC           M.P.E.C. 2018-Q92



More information about the Iaude mailing list